星链-31707 (STARLINK-31707 )

导读 | 豆包AI

STARLINK-31707是美国太空探索技术公司Starlink卫星互联网项目的组网卫星,于2024年5月13日发射入轨,属于星链星座扩容任务的一部分。星链旨在打造覆盖全球的低轨卫星互联网,该卫星承担提供高速网络接入服务的任务,尤其服务偏远地区与特殊场景网络需求,也是美国低轨星座部署的重要组成单元。

Basic Information
目录编号:
59736
目录名称:
STARLINK-31707
国际标识:
2024-090G
轨道中心:
EARTH
卫星名称:
星链-31707
卫星全名:
星链-31707 (STARLINK-31707 )
卫星状态:
在轨 (已飞行718 天)
发射日期:
2024-05-13 UTC
国别 :
美国 (US)
星等 :
--
Orbit Information
数据来源 国际轨道数据 AOE轨道数据
星历时间 2026-04-30T22:58:40+0800
11小时前
查看轨道信息
2026-04-28T01:00:00+0800
3天前
查看轨道信息
半长轴 6861.158km 6861.13km
偏心率 0.0001407 0.0001457
轨道倾角 43.002° 43.002°
近地点辐角 256.288° 254.614°
升交点赤经 250.130° 266.595°
平近点角 103.782° 252.234°
近地点 482.055km 481.993km
远地点 483.987km 483.993km
周期 94.266分钟 94.266分钟
每日圈数 15.275895 15.275989
Detailed Information
固有亮度:
5
最大亮度:
1.5
卫星平台:
Starlink v2.0 mini
覆盖范围:
全球
运营商:
太空探索技术公司
运营商所在国:
美国
制造商(研发单位):
太空探索技术公司
制造商所在国:
美国
使用方式:
暂无
Satellite Introduction
星链(Starlink)计划是由太空探索技术公司(SpaceX)提出的一个巨型低轨卫星互联网星座项目,计划在2019年至2024年间在太空搭建由约1.2万颗卫星组成的“星链”网络,其中1584颗将部署在地球上空550千米处的近地轨道,并从2020年开始工作。该卫星仍在工作。
2D Orbit Map
3D Orbit Map
Orbit Altitude Analysis Chart
Orbit Inclination Analysis Chart
Orbit Comprehensive Analysis Chart
View Comprehensive Chart